星链-30187 (STARLINK-30187 )

导读

STARLINK-30187是美国SpaceX星链星座的卫星,于2023年7月28日发射,归属美国太空探索技术公司。它属于星链卫星互联网项目,主要为全球提供低延迟、高速率的宽带互联网服务,部署在近地轨道,是星链星座组网建设中,实现全球网络覆盖的重要组成单元。

Basic Information
目录编号:
57473
目录名称:
STARLINK-30187
国际标识:
2023-107S
轨道中心:
EARTH
卫星名称:
星链-30187
卫星全名:
星链-30187 (STARLINK-30187 )
卫星状态:
已陨落 最后检测时间 2026-04-08
发射日期:
2023-07-28 UTC
国别 :
美国 (US)
星等 :
--
Orbit Information
数据来源 国际轨道数据
星历时间: 2026-04-08T17:49:44+0800
轨道信息已过期71天
半长轴: 6608.004km
偏心率: 0.0011595
轨道倾角: 42.981°
近地点辐角 119.178°
升交点赤经 119.427°
平近点角 241.027°
近地点: 222.205km
远地点: 237.529km
周期: 89.097分钟
每日圈数: 16.162083
Detailed Information
固有亮度:
5
最大亮度:
0.3
卫星平台:
Starlink v2.0 mini
覆盖范围:
全球
运营商:
太空探索技术公司
运营商所在国:
美国
制造商(研发单位):
太空探索技术公司
制造商所在国:
美国
使用方式:
暂无
Satellite Introduction
星链(Starlink)计划是由太空探索技术公司(SpaceX)提出的一个巨型低轨卫星互联网星座项目,计划在2019年至2024年间在太空搭建由约1.2万颗卫星组成的“星链”网络,其中1584颗将部署在地球上空550千米处的近地轨道,并从2020年开始工作。该卫星仍在工作。